Regional Weather Roundup
Issued by NWS Raleigh/Durham, NC

Current Version | Previous Version | Text Only | Print | Product List | Glossary On
Versions: 1 2 3 4 5 6 7 8 9 10 11 12 13 14 15 16 17 18 19 20 21 22 23 24 25 26 27 28 29 30 31 32 33 34 35 36 37 38 39 40 41 42 43 44 45 46 47 48 49 50
000 ASUS42 KRAH 041210 RWRRAH NORTH CAROLINA WEATHER ROUNDUP NATIONAL WEATHER SERVICE RALEIGH NC 700 AM EST SUN DEC 04 2016 NOTE: "FAIR" INDICATES FEW OR NO CLOUDS BELOW 12,000 FEET WITH NO SIGNIFICANT WEATHER AND/OR OBSTRUCTIONS TO VISIBILITY. NCZ001-053-055-056-065-067-041300- WESTERN NORTH CAROLINA CITY SKY/WX TMP DP RH WIND PRES REMARKS ASHEVILLE LGT RAIN 40 37 89 SE6 30.22R JEFFERSON RAIN 33 32 98 S3 30.18S MORGANTON LGT RAIN 40 40 100 CALM 30.31R HICKORY LGT RAIN 38 38 100 CALM 30.27R FOG RUTHERFORDTON DRIZZLE 41 41 100 CALM 30.27R MOUNT AIRY CLOUDY 40 31 71 E5 30.28R BOONE LGT RAIN 35 35 100 CALM 30.20R $$ NCZ021-022-025-041-071-084-088-041300- CENTRAL NORTH CAROLINA CITY SKY/WX TMP DP RH WIND PRES REMARKS CHARLOTTE LGT RAIN 43 36 76 NE6 30.27R GREENSBORO CLOUDY 40 29 64 CALM 30.27R WINSTON-SALEM LGT RAIN 40 29 64 CALM 30.28R RALEIGH-DURHAM CLOUDY 42 30 62 E7 30.29R FORT BRAGG CLOUDY 43 39 87 CALM 30.28R FAYETTEVILLE CLOUDY 44 41 89 NE3 30.28R BURLINGTON CLOUDY 40 29 64 NE3 30.28R LAURINBURG CLOUDY 44 40 85 N3 30.30R $$ NCZ011-015-027-028-043-044-047-080-103-041300- NORTHEASTERN NORTH CAROLINA CITY SKY/WX TMP DP RH WIND PRES REMARKS ROCKY MT-WILSO CLOUDY 40 32 73 NE7 30.29R GREENVILLE CLOUDY 39 36 87 CALM 30.29R WASHINGTON PTCLDY 40 35 81 CALM 30.28R ELIZABETH CITY MOCLDY 42 35 76 NW7 30.27R MANTEO CLOUDY 46 41 83 N7 30.25F CAPE HATTERAS CLOUDY 50 39 66 VRB6 30.25R $$ NCZ078-087-090-091-093-098-101-041300- SOUTHEASTERN NORTH CAROLINA CITY SKY/WX TMP DP RH WIND PRES REMARKS LUMBERTON CLOUDY 46 37 71 NE3 30.28R GOLDSBORO CLOUDY 43 35 73 NE7 30.26R KINSTON CLOUDY 43 36 75 CALM 30.29R KENANSVILLE LGT RAIN 43 39 87 CALM 30.27S NEW BERN CLOUDY 43 36 76 NE3 30.28R CHERRY POINT CLOUDY 46 37 71 N5 30.28R BEAUFORT CLOUDY 47 39 74 VRB3 30.27R JACKSONVILLE CLOUDY 45 38 76 N3 30.27R WILMINGTON CLOUDY 46 37 71 N3 30.27R $$

USA.gov is the U.S. government's official web portal to all federal, state and local government web resources and services.